Tracking 25734 objects as of 26-May-2022
HD Live streaming from Space Station
objects crossing your sky now

COSMOS 1275 DEB

Track COSMOS 1275 DEB now!
10-day predictions


NORAD ID: 14441
Int'l Code: 1981-053JL
Perigee: 857.3 km
Apogee: 921.0 km
Inclination: 83.1 °
Period: 102.6 minutes
Semi major axis: 7260 km
RCS: 0.0079 m2 (small)
Launch date: June 4, 1981
Source: Commonwealth of Independent States (former USSR) (CIS)
Launch site: PLESETSK MISSILE AND SPACE COMPLEX (PKMTR)

Note: This is SATELLITE DEBRIS
aabbcc
Your satellite tracking list
Your tracking list is empty




NASA's NSSDC Master Catalog

Two Line Element Set (TLE):
1 14441U 81053JH  22145.51310981  .00001328  00000-0  83211-3 0  9995
2 14441  83.1185 326.3274 0043856  28.7359 331.6215 14.03398383 64349
Source of the keplerian elements: AFSPC